Main page


Airports :

Sabzevar, Iran

Sabzevar Airport

latitude: 36-13N, longitude: 057-40E, elevation: 941 m

Current weather observation

The report was made 17 hours and 1 minutes ago, at 17:00 UTC
Wind 10 kt from the Northeast
Temperature 13°C
Humidity 77%
Pressure 1011 hPa
Visibility 10 km or more
Few clouds at a height of 3000 ft, Cumulonimbus.
Scattered clouds at a height of 3500 ft
Overcast at a height of 10000 ft

METAR: OIMS 171700Z 05010KT 9999 FEW030CB SCT035 OVC100 13/09 Q1011 RESHRA

Time: 13:31 (10:01 UTC)

TAF: missing

Weather observations and forecasts of more than 4000 airports (METAR and TAF reports).

The available stations are represented by yellow and red dots on the map.

Hover mouse over dot to see the name of the station.

Then click to see weather observations and forecasts.

To change the map : click on the green buttons with a black cross to zoom in, on the green button with a dash to zoom out, or on the green arrows for adjacent maps.